COSMOS 2251 DEB, 36005

Orbit data source: Space-Track

COSMOS 2251 DEB, 36005 is space debris in LEO originally from a launch on Wed, 16 Jun 1993 UTC launched from the Plesetsk Missile And Space Complex (PKMTR). The debris from Iridium 33, an American commercial communications satellite, has been tracked extensively since its accidental collision with the defunct Russian satellite Cosmos 2251 in 2009. This event, occurring at high speed in low Earth orbit (LEO), generated thousands of pieces of space debris, significantly increasing the risk of further collisions. The Iridium 33 debris cloud has impacted space traffic management and orbital debris mitigation strategies, making it a subject of ongoing study in space situational awareness.

Loading next visibility...
Identifier
36005, 1993-036AWX
Orbit
LEO
Country
Flag of CISCIS
Related business
Manufacturer
Unknown
Mission
Spacecraft
Bus & Motor
Unknown
Mass
Unknown
Launch date (UTC)
1993-06-16 (33 years ago)
Launch vehicle
Unknown
Launch site
Plesetsk Missile And Space Complex (PKMTR)
Object type
Payload
Rocket body
Debris
Shape & HBR
Unknown shape, 0.1 m
Radar Cross Section
Small (<0.1 m²)

Expand to show TLE details & history
Last TLE update: 18 hours ago

TLE from 18 hours ago
0 COSMOS 2251 DEB
1 36005U 93036AWX 25352.53518796  .00000545  00000-0  15290-3 0  9990
2 36005  74.0272  83.1628 0061767 219.3183 140.3484 14.47366749876680
Epoch: 2025-12-18T12:50Z
TLE epoch observation values (Epoch: 2025-12-18T12:50:40.239Z)
Latitude
-0.00003°
Longitude
163.10583°
Altitude
770.826 km
Speed
7.451 km/s
True Right ascension
05h 32m 39s
True Declination
0° 00' 00"
Sunlit
Object was in full shadow at epoch
Visualization orbit readout
Latitude
Unknown
Longitude
Unknown
Altitude
Unknown
Speed
Unknown
Apparent Right ascension
Unknown
Apparent Declination
Unknown
Sunlit
N/A
Visualization observer readout
Local Sidereal Time
05:17:41
Azimuth
Unknown
Elevation
Unknown
Doppler factor
Unknown
Orbital elements
Apogee altitude
775.791 km
Perigee altitude
687.958 km
Semi-major axis
7,110.011 km
Eccentricity
0.00618
Inclination
74.0272°
RAAN
83.1628°
Arg. of periapsis
219.3183°
True anomaly
140.79738°
Mean anomaly
140.3484°
Eccentric anomaly
140.57316°
Mean motion
3.62024 °/min
Orbital period
99.44 mins
BSTAR
0.0001529
Loading maneuver chart data...
Computing Atmospheric mass density...

Documentation

Showing up to 5 results
|